Theta_e
322 322 322 321 321 321 321 320 319 319 320 320 321 321 322 323 323 324 324 321 319 318 316 315 315 313 312 310 309 307 306 305 304 304 304 304 304 304 303 303 303 303 303 302 301 301 301 301 301 300 299 299 299 299 299 298 298 298 297 296 296 295 294 295 295 296 296 296 296 296 295 295 294 294 294 293 293 293 293 293 293 293 293 293 294
322 322 322 321 321 321 320 320 320 320 320 321 322 322 323 324 324 324 324 321 319 318 317 316 315 314 312 311 310 308 307 305 304 304 304 304 304 303 303 302 302 302 303 303 302 301 301 301 301 300 299 298 298 298 298 298 298 298 297 296 295 294 294 294 294 295 296 296 296 296 295 295 295 294 294 294 293 293 293 293 293 293 293 293 294
322 321 321 321 321 321 320 320 320 320 321 322 323 323 323 324 324 324 325 323 320 319 318 317 316 314 313 312 311 309 308 307 305 304 304 304 304 303 303 302 303 303 303 303 302 302 302 301 301 301 300 299 299 299 299 299 298 298 298 297 295 295 294 294 294 295 296 296 296 296 296 295 295 295 295 294 294 293 293 293 293 293 293 293 294
322 321 321 321 321 321 320 320 320 321 322 323 323 324 323 324 324 324 324 324 321 319 318 318 317 315 314 313 312 310 309 308 306 304 304 304 304 303 303 303 303 303 302 302 302 301 301 301 301 301 300 300 300 300 300 300 300 299 299 298 296 295 294 294 295 295 296 296 296 296 296 296 296 296 295 295 294 294 294 294 294 294 293 293 294
322 321 321 321 321 321 321 321 322 322 323 323 323 324 324 325 325 324 324 325 322 320 319 318 317 316 315 314 313 311 310 309 307 305 304 304 303 303 303 303 302 303 302 302 301 301 301 301 301 301 301 300 300 300 300 301 300 299 300 299 297 295 295 295 295 296 296 296 296 296 296 296 296 296 295 295 295 294 294 294 294 294 294 294 294
322 321 321 321 321 322 322 322 322 323 323 323 324 325 325 325 326 325 324 325 323 321 320 319 317 317 316 315 314 312 311 310 308 307 305 304 304 303 303 303 302 302 302 302 301 301 301 301 301 301 301 300 300 300 300 301 300 300 300 300 297 296 295 295 296 296 296 296 297 297 297 296 296 296 296 295 295 295 294 294 294 294 294 294 295
322 322 321 321 321 322 322 322 323 323 324 324 325 325 325 326 326 325 325 325 324 322 321 320 318 318 317 316 314 313 311 310 309 307 306 305 304 304 303 304 303 302 302 301 301 301 301 301 301 301 300 300 300 300 300 301 301 301 301 300 298 296 296 296 296 296 296 297 297 296 296 296 296 296 296 295 295 295 294 294 294 294 294 294 295
323 322 322 322 322 322 322 322 323 324 324 324 325 326 326 326 327 326 326 326 325 323 322 321 319 318 318 316 315 313 312 310 309 308 307 306 305 304 304 304 303 303 302 301 301 301 301 300 300 300 300 300 300 300 301 301 301 301 301 300 299 297 297 296 296 296 297 297 297 296 296 296 296 296 295 295 295 295 294 294 294 294 294 294 295
323 323 322 323 322 322 322 322 323 324 324 325 325 326 326 327 328 327 327 326 326 324 323 322 320 319 318 317 315 313 312 311 310 309 308 307 306 305 304 304 303 303 303 302 301 301 301 301 300 300 300 300 299 298 298 298 298 300 301 300 299 298 297 296 296 297 297 297 297 297 296 296 296 296 295 295 294 294 294 293 294 294 294 294 295
324 323 322 323 323 323 322 323 323 324 324 325 325 326 327 328 328 328 328 327 326 325 324 322 321 320 319 317 315 314 313 312 311 311 309 307 307 306 305 304 304 303 303 303 302 302 301 301 300 300 299 298 296 295 294 295 295 297 298 299 298 298 297 296 296 296 297 297 296 296 296 296 296 295 295 294 294 293 293 293 294 294 294 294 294
324 323 323 323 323 323 323 323 324 324 325 325 326 327 328 329 329 328 328 328 327 325 324 323 321 321 320 318 316 314 313 314 315 315 311 307 305 306 306 305 304 303 302 302 302 302 302 301 301 300 299 298 296 295 295 295 295 295 296 296 297 297 296 295 295 295 295 295 295 295 296 296 296 295 294 293 293 293 293 293 293 293 293 293 294
323 323 323 323 323 323 323 323 324 325 325 326 326 327 328 328 329 329 328 328 327 325 324 323 322 321 320 319 317 315 315 316 318 317 314 308 304 305 306 306 304 303 302 302 302 302 302 302 301 301 300 300 299 298 299 299 298 297 296 296 296 296 296 294 293 293 294 294 294 295 295 295 295 294 294 293 293 292 292 292 292 292 292 293 294
323 323 323 323 323 324 324 324 325 325 326 326 326 327 328 328 329 329 329 329 327 325 324 323 322 322 320 319 318 317 317 318 319 318 315 310 305 303 305 306 305 303 303 302 301 301 301 301 301 301 301 300 300 299 300 301 301 300 299 297 296 295 295 294 291 290 291 292 293 294 294 295 295 294 294 293 292 292 291 291 291 291 292 293 294
323 323 323 323 323 324 325 325 325 326 326 326 327 327 328 329 329 329 329 329 328 326 324 323 322 321 320 319 319 319 318 319 319 318 316 312 306 302 303 305 305 304 302 301 301 301 301 301 301 301 301 301 301 300 300 300 302 302 301 299 297 296 295 295 293 291 291 292 293 294 295 295 295 294 293 292 291 291 290 290 290 290 292 293 294
324 323 323 323 323 324 324 325 325 325 326 326 327 327 328 329 329 329 329 329 329 326 324 322 322 321 320 320 320 319 318 319 319 318 316 313 307 302 302 304 305 303 301 301 300 300 301 300 300 300 301 301 302 302 302 301 302 302 302 300 299 298 297 296 295 295 294 294 294 295 295 294 293 292 291 291 290 290 289 289 289 290 292 294 295
325 324 323 323 323 323 324 324 325 325 325 326 326 327 328 329 329 330 329 329 329 326 324 322 321 321 320 319 319 318 318 319 319 317 316 314 308 302 301 303 304 303 301 300 300 300 300 300 300 300 300 300 301 301 300 299 299 300 300 300 300 299 298 297 295 293 292 291 292 292 292 292 291 291 290 290 289 289 289 289 290 291 293 294 295
326 325 325 325 324 323 323 324 324 325 325 326 326 327 328 329 330 330 330 330 329 326 324 322 321 321 320 319 318 318 318 318 318 317 315 315 310 303 301 302 303 302 301 300 299 299 298 298 298 298 299 299 299 300 299 297 297 297 298 299 300 299 298 297 295 294 291 289 289 291 291 291 291 291 290 290 290 289 289 290 291 292 293 294 295
327 326 326 326 325 325 324 324 324 325 325 326 326 327 328 330 330 330 330 329 328 326 324 323 322 321 319 319 319 319 318 317 318 317 315 315 312 305 301 302 303 302 302 301 300 299 298 296 295 295 297 299 299 299 298 296 296 297 297 299 299 299 298 297 296 295 292 290 289 291 292 292 292 291 291 291 291 290 290 291 292 293 293 293 295
327 327 327 327 327 326 326 325 325 325 325 326 327 327 329 330 330 330 329 328 327 327 325 323 322 320 319 319 319 319 317 315 316 316 315 315 313 307 302 303 304 303 303 302 301 300 299 298 295 294 294 295 296 297 296 295 296 297 297 298 299 299 298 297 296 294 292 290 289 290 292 292 292 292 292 292 292 291 291 292 293 293 293 293 294
328 327 328 328 328 328 327 327 327 327 326 327 327 328 329 330 330 330 329 328 326 326 325 322 321 320 319 319 319 318 316 315 314 316 315 315 314 308 303 303 304 304 303 303 302 302 300 300 298 296 294 292 291 292 292 292 293 296 297 298 298 298 298 297 295 293 292 290 289 290 291 292 292 292 293 292 292 292 292 292 292 292 292 293 294
328 328 328 329 329 329 329 329 329 329 328 328 328 329 330 330 330 330 329 327 326 325 324 322 321 320 320 319 318 317 316 315 314 315 315 315 315 310 304 303 305 305 305 304 304 303 302 300 300 299 297 294 292 290 290 289 290 293 295 297 298 298 297 296 294 292 292 290 289 289 291 292 293 293 293 292 291 291 291 291 291 292 292 293 294
329 329 329 328 329 329 329 330 330 330 330 330 330 330 330 330 330 329 327 326 325 324 323 322 320 320 320 319 317 315 315 314 313 314 315 316 315 312 307 304 304 304 305 305 305 304 303 302 301 300 298 296 294 291 289 289 289 290 291 292 294 295 295 293 292 292 292 291 290 291 292 293 293 293 292 292 291 291 291 290 290 291 292 293 294
329 329 329 329 329 329 329 330 330 330 330 330 329 329 329 330 329 328 326 325 324 324 323 322 320 320 320 319 317 316 315 314 313 314 315 316 315 313 310 306 303 303 304 305 306 305 304 303 302 301 299 297 296 293 291 289 288 288 288 289 289 290 291 291 292 292 293 293 293 292 292 293 293 293 293 292 291 291 290 290 291 292 292 293 294
330 330 330 329 330 330 330 331 331 331 330 330 329 329 330 330 329 328 325 325 325 324 323 323 322 321 321 320 319 317 315 314 314 314 315 316 315 314 312 308 304 303 303 304 305 305 305 304 303 302 301 299 297 297 296 293 290 288 288 288 288 288 289 290 291 292 293 294 294 293 292 293 293 293 292 292 292 291 291 291 292 292 293 294 295
330 330 330 330 330 330 330 330 331 331 331 330 330 329 329 329 329 327 326 325 325 324 324 323 323 322 321 321 320 318 315 314 313 313 314 315 315 314 312 309 306 304 302 302 303 303 304 303 302 302 301 299 298 298 298 297 295 292 290 288 287 288 288 289 290 292 294 295 295 293 292 293 293 293 292 292 291 291 291 291 292 292 293 294 295
330 330 330 330 329 329 330 330 330 330 329 329 329 328 328 329 328 326 325 324 324 324 324 324 323 322 321 321 321 319 317 315 314 313 313 313 314 314 312 309 306 304 302 301 301 301 302 302 301 301 300 299 299 299 298 298 298 297 295 291 288 287 288 290 292 294 295 294 294 292 292 293 293 293 291 291 291 292 292 291 291 292 292 294 295
331 331 331 331 330 330 330 329 329 329 329 328 328 327 327 327 327 325 325 324 324 324 324 323 322 321 321 321 321 320 318 316 315 314 312 312 312 313 311 309 306 303 302 302 302 302 303 302 302 301 301 300 299 299 298 297 297 297 297 296 293 291 289 289 291 294 294 293 292 292 291 292 292 292 291 291 292 292 292 291 291 292 292 293 296
331 331 331 331 330 330 330 328 328 328 328 328 327 327 327 326 326 326 325 324 324 325 324 324 323 322 322 321 321 321 320 318 317 316 314 312 311 311 310 309 307 305 305 305 304 303 303 302 301 301 300 300 299 298 297 297 296 296 298 298 297 295 292 289 291 293 293 292 291 291 291 291 291 291 291 291 292 292 291 291 291 291 292 294 296
331 332 332 331 330 330 329 328 327 328 328 327 327 327 326 325 326 326 325 323 323 324 324 324 323 323 323 323 322 322 321 319 318 316 314 313 312 311 310 309 308 308 308 307 305 304 303 302 301 301 300 299 299 299 299 298 297 297 297 297 296 295 293 292 292 294 293 291 291 292 291 291 290 291 291 291 292 292 291 291 291 291 292 294 296
331 331 331 330 329 329 329 328 327 327 328 328 327 325 323 322 323 324 323 321 320 320 320 321 321 321 321 322 322 321 320 318 317 315 313 312 311 311 311 310 309 309 308 307 305 304 304 303 302 301 301 301 301 301 301 300 298 297 297 296 295 294 294 294 295 295 294 292 292 292 291 291 290 290 291 291 292 292 291 290 291 292 293 294 295
330 330 329 328 327 327 328 327 327 327 327 327 326 325 323 321 320 320 320 319 319 318 318 318 318 317 317 318 318 317 316 315 315 313 312 312 311 310 309 308 308 307 306 305 304 303 303 303 302 302 302 302 302 302 301 300 298 297 296 296 296 295 295 295 295 295 294 293 292 292 291 290 290 290 291 291 291 291 291 290 291 292 292 293 295
328 327 326 324 323 325 326 326 326 326 326 325 325 325 324 323 322 319 318 318 317 317 317 316 316 316 315 315 315 314 313 313 313 312 311 310 309 308 308 307 306 305 304 303 302 302 302 302 302 302 303 303 303 302 301 299 298 298 297 297 298 298 297 296 296 296 295 294 293 292 291 290 290 290 290 291 291 291 291 291 291 291 292 293 294
324 324 324 324 323 324 324 324 324 324 324 323 323 323 323 323 322 320 318 317 316 316 316 316 315 315 314 314 314 313 313 312 311 310 309 308 307 307 306 305 304 303 302 301 300 301 301 302 302 303 304 304 304 302 301 300 299 298 298 298 299 300 300 299 298 296 296 295 294 293 292 291 290 290 290 291 291 291 291 291 291 291 292 293 294
319 320 322 323 324 323 323 323 322 322 321 321 320 320 320 320 320 319 319 318 318 318 317 316 315 315 315 315 314 314 314 313 312 310 309 308 307 306 305 304 303 302 301 301 301 302 303 303 304 304 305 305 305 303 301 300 300 299 300 300 301 301 301 300 298 297 296 295 294 293 292 291 290 290 290 291 291 291 291 291 291 291 292 292 293
314 315 317 319 321 321 320 319 319 319 319 318 317 317 317 316 315 315 316 316 316 317 318 317 316 315 314 314 314 314 314 313 312 311 310 308 307 306 305 304 304 304 302 302 302 304 304 305 306 306 306 305 304 303 302 302 302 302 303 303 303 303 302 300 298 297 296 295 294 293 292 291 290 290 290 291 291 291 291 291 291 291 291 292 292
308 309 310 311 313 314 314 314 314 315 316 316 315 314 314 314 313 313 314 314 315 317 317 317 316 315 314 314 313 313 313 312 312 311 310 309 309 308 307 307 309 309 307 306 305 305 305 305 306 306 305 304 304 304 304 304 305 305 304 304 304 303 302 301 299 298 297 295 294 293 292 291 290 290 290 290 290 290 291 291 291 290 291 291 291
306 307 307 308 309 310 311 311 312 313 314 315 315 315 315 315 315 315 315 315 316 316 316 316 316 316 315 315 313 312 311 311 311 311 310 309 309 308 307 308 310 311 311 311 310 309 307 306 306 306 305 305 305 306 306 306 306 305 305 304 304 303 302 301 299 298 297 295 294 294 293 291 290 289 290 290 290 290 291 291 291 290 290 290 290
308 308 309 311 312 312 312 312 313 313 313 314 314 313 314 314 314 314 314 314 314 315 315 315 315 315 315 314 313 312 311 310 311 310 309 309 308 307 307 308 309 310 310 311 311 309 308 308 307 307 307 306 306 307 307 307 306 305 305 304 304 303 301 300 298 297 297 296 295 294 293 291 290 289 289 290 290 290 290 291 290 290 290 291 291
308 308 309 310 310 310 310 310 309 309 309 309 308 308 308 309 309 310 310 310 311 311 311 311 312 311 311 310 310 310 311 311 312 312 311 310 309 308 309 309 309 309 309 309 309 309 309 309 309 308 308 307 307 307 307 306 305 305 305 304 304 303 301 299 299 298 297 296 295 294 293 292 290 289 289 290 290 290 290 290 290 290 291 291 292
306 305 305 306 306 306 305 305 305 304 304 304 304 304 304 305 305 305 306 306 307 307 307 308 309 309 308 307 308 309 310 312 312 312 311 311 311 310 310 310 310 310 309 309 309 310 310 310 309 308 308 308 307 306 306 305 305 304 304 303 303 302 301 300 299 298 297 296 295 294 293 292 291 289 289 290 290 289 289 290 290 289 290 290 291
304 304 304 304 304 303 303 303 303 303 303 303 303 303 303 303 303 303 303 303 303 304 304 305 306 307 306 304 303 305 308 311 311 310 310 310 310 310 310 309 309 310 309 309 309 309 308 308 308 307 307 307 306 305 305 305 304 304 303 302 301 301 301 300 300 299 297 296 295 294 293 292 291 290 289 289 290 289 289 289 289 289 289 290 290
303 303 303 303 303 303 303 303 303 303 302 302 301 301 301 302 302 302 302 302 302 302 303 302 303 305 305 302 299 301 305 308 307 306 307 307 307 307 307 307 307 307 307 306 306 306 306 305 305 306 306 306 305 305 305 304 304 303 302 302 301 301 300 300 299 298 297 296 295 294 293 293 292 290 289 289 290 289 289 288 288 288 289 290 290
302 302 302 302 302 302 303 302 302 302 302 301 301 301 302 303 303 302 302 302 302 302 302 302 302 302 304 302 300 301 303 304 303 302 302 302 302 302 303 303 304 303 303 303 304 303 303 303 303 304 304 305 304 304 304 304 303 303 302 302 301 301 300 300 299 298 297 296 295 294 294 293 292 290 289 289 289 289 289 288 288 288 288 289 290
302 302 302 302 302 302 302 302 302 302 301 302 302 303 302 302 302 302 302 302 302 302 302 302 302 302 302 302 302 302 302 302 301 301 300 300 300 300 300 300 301 300 300 301 301 301 301 301 302 302 303 304 304 304 303 303 303 302 302 302 301 300 300 300 299 298 297 296 294 294 294 294 292 290 288 288 289 289 288 288 288 288 288 289 290
302 302 302 302 302 302 302 302 302 302 302 302 303 303 302 302 302 302 301 301 301 301 301 302 302 302 302 302 302 302 302 302 301 301 300 300 299 300 299 299 299 299 299 300 300 300 300 300 300 301 301 302 303 304 304 303 303 302 302 302 302 301 300 299 298 298 297 296 295 294 294 293 292 290 288 288 288 288 288 288 287 287 287 288 289
302 301 301 301 301 301 301 301 301 301 301 301 302 301 301 301 301 301 301 301 301 301 301 301 302 302 302 302 302 302 302 302 301 301 300 300 299 299 299 299 299 299 299 299 299 300 300 300 299 300 300 300 301 302 303 303 303 303 302 302 302 302 301 300 298 298 297 296 295 295 294 293 292 291 289 288 288 289 288 288 287 287 287 287 288
301 301 301 301 301 301 301 301 300 300 300 301 301 301 300 300 300 300 301 301 301 301 301 302 302 302 302 302 302 302 302 302 302 301 301 300 300 300 300 299 299 299 299 299 299 299 299 299 299 299 299 299 299 300 301 302 302 303 303 302 302 301 301 300 298 298 297 296 295 295 294 293 292 292 290 288 288 289 289 288 287 287 287 287 287
301 301 301 301 300 300 300 300 300 300 300 300 300 300 299 300 300 300 300 300 300 300 301 301 301 301 302 302 302 302 302 302 302 301 301 301 301 300 300 300 299 299 299 299 299 299 299 299 300 299 299 299 299 299 300 300 301 301 302 302 302 301 299 298 298 297 297 296 295 295 294 293 293 292 290 288 288 289 289 288 287 287 287 286 287
301 301 301 301 300 300 300 300 300 299 300 300 299 299 299 299 299 299 299 299 299 299 300 300 300 300 301 301 301 301 301 301 301 301 301 301 300 300 300 300 299 299 299 299 299 299 299 299 300 300 299 299 299 299 299 299 299 300 301 302 302 300 299 298 297 296 296 295 295 294 294 294 293 292 290 288 288 289 290 288 287 287 287 286 287
301 301 301 300 300 300 300 299 299 299 299 299 299 299 299 299 299 299 299 299 299 299 299 299 300 300 300 300 301 301 301 301 301 300 300 300 300 300 300 300 299 299 299 299 299 299 299 299 299 299 299 299 299 299 299 298 299 299 299 300 300 300 299 298 297 296 295 294 293 293 293 293 293 292 291 289 288 289 289 288 287 287 286 286 287
301 301 301 300 300 300 299 299 299 299 299 299 299 299 298 298 298 298 298 298 299 299 299 299 299 300 300 300 300 300 300 300 300 300 300 300 300 300 300 300 299 299 299 299 299 299 299 299 299 299 298 298 299 299 298 298 298 297 295 295 297 299 300 299 298 297 295 293 292 292 292 292 292 292 290 289 288 289 289 288 287 286 286 286 287
Wind_Speed
20 19 19 18 18 17 17 17 16 15 14 13 12 11 10 9 9 8 9 10 11 11 11 11 11 10 9 9 8 8 8 8 7 7 6 6 6 6 6 6 5 5 4 4 4 3 3 3 3 2 1 1 1 1 1 2 2 3 3 4 4 5 6 7 9 11 13 12 13 14 14 15 16 16 17 18 18 19 19 19 19 18 18 17 17
20 19 18 18 18 18 18 17 17 16 14 13 13 12 11 10 9 9 9 11 11 11 11 12 11 10 10 9 9 8 8 8 8 7 7 7 7 6 6 6 6 5 5 5 5 4 4 4 4 3 2 2 2 2 2 2 3 4 4 4 5 6 6 8 10 12 13 14 14 15 14 14 16 17 17 19 20 20 20 20 19 18 17 17 18
20 19 19 18 19 18 18 18 17 16 15 14 14 13 12 11 10 10 10 11 11 12 12 12 12 11 11 10 10 9 9 9 8 8 7 8 7 7 7 7 7 6 6 6 6 6 5 5 5 4 4 4 4 4 3 3 4 4 5 5 6 6 6 8 9 11 14 15 15 15 15 15 16 17 17 19 20 20 21 20 19 19 19 19 19
20 20 19 19 19 19 19 18 18 17 16 16 15 14 13 12 11 11 11 11 12 12 12 12 12 12 12 11 11 10 10 10 9 8 8 8 8 8 8 8 8 7 7 7 7 6 6 6 6 6 5 5 5 5 5 4 4 5 5 5 6 6 7 8 9 11 13 15 16 16 16 17 17 17 17 18 19 21 21 20 19 20 20 20 21
21 20 20 20 20 20 20 19 19 18 18 17 16 15 14 13 12 12 11 12 12 13 13 13 13 14 13 12 11 11 11 11 10 10 9 9 9 8 8 8 8 8 8 8 7 7 7 7 7 7 7 6 6 6 6 5 6 6 6 6 6 7 8 9 9 10 12 15 17 17 17 17 17 17 17 17 19 21 22 21 20 20 21 21 21
21 21 21 21 21 21 21 20 20 19 19 18 16 16 15 14 14 13 12 13 13 13 14 14 14 14 14 13 13 12 12 11 11 10 10 10 10 9 9 9 9 9 9 9 9 8 8 8 8 8 8 8 7 7 7 6 7 6 6 7 7 7 8 9 10 11 12 14 16 17 17 17 17 17 16 17 19 20 21 23 23 21 21 21 22
22 21 21 21 22 22 22 22 21 20 19 18 17 16 16 15 15 14 13 13 14 14 14 15 15 15 14 14 14 14 13 12 12 11 11 11 11 10 10 10 10 10 10 10 10 10 9 9 9 9 9 9 8 8 7 7 7 7 7 7 7 8 9 9 10 11 12 13 14 16 16 17 17 17 17 18 19 19 19 22 25 24 23 23 23
22 22 22 22 22 23 23 22 21 20 19 19 18 17 16 16 15 14 14 14 15 15 14 15 16 15 14 15 15 15 14 14 13 12 12 11 11 11 11 11 10 10 10 10 10 11 11 11 10 10 10 9 9 8 7 7 7 7 8 7 7 8 9 9 10 11 12 13 14 15 16 17 16 17 18 19 19 18 19 21 23 25 26 25 24
23 23 22 22 23 22 22 21 21 20 20 19 18 17 17 16 15 15 15 15 15 15 15 15 15 15 15 16 16 16 16 15 15 15 13 12 12 11 11 11 11 11 11 11 11 11 12 12 11 11 11 11 12 12 11 10 9 8 8 8 8 9 9 9 10 11 12 13 14 14 15 16 16 17 18 19 19 20 21 21 22 24 25 26 25
23 23 23 23 23 22 22 21 20 20 20 20 19 18 17 16 16 16 15 15 15 15 15 15 15 16 16 16 17 17 18 19 19 18 16 14 13 11 11 11 11 11 11 11 12 12 13 12 12 13 14 15 17 17 15 14 13 12 10 9 9 9 9 10 10 11 12 12 13 14 15 16 16 17 18 18 19 20 21 21 22 23 24 24 24
24 24 24 23 22 22 22 21 21 21 21 20 19 18 18 17 17 16 16 16 15 15 16 16 16 16 16 17 17 18 20 22 22 21 19 17 15 12 11 11 11 12 12 12 12 12 13 13 12 13 15 17 18 18 17 16 16 14 13 13 13 12 11 11 11 11 11 12 13 14 15 16 17 17 18 18 19 20 21 21 21 22 22 21 22
24 24 24 23 22 22 22 22 22 21 21 21 20 19 19 18 18 17 16 16 16 17 18 17 16 16 16 16 16 18 22 25 24 21 20 20 19 15 12 11 12 12 12 13 13 12 12 12 12 13 14 15 15 16 16 16 16 16 15 15 15 15 14 13 12 12 12 13 14 15 16 16 17 17 17 18 20 21 21 21 20 21 21 21 21
25 25 25 23 23 23 22 22 22 22 22 21 20 20 19 19 18 17 16 16 17 18 18 17 17 17 16 15 16 20 25 27 25 22 21 21 21 19 15 13 12 13 13 13 13 12 12 12 12 13 13 14 15 15 15 15 16 16 16 16 17 18 17 16 15 15 14 14 16 17 16 16 17 18 17 19 20 21 21 21 21 21 21 21 22
25 25 25 24 24 23 23 23 23 22 22 21 20 20 20 19 19 17 16 16 17 18 19 20 18 16 15 16 20 25 27 27 26 24 24 22 22 22 19 15 13 14 14 13 13 13 13 13 13 13 13 14 14 15 14 14 14 14 14 14 15 16 17 16 15 15 16 16 17 18 17 17 17 19 19 18 19 20 21 21 22 22 23 23 23
24 24 24 25 25 24 23 23 23 22 21 21 20 20 20 20 19 18 16 16 17 19 22 22 20 19 20 23 25 26 28 28 26 25 25 23 22 23 21 18 15 15 14 15 14 14 14 14 14 14 14 14 14 14 14 12 12 13 13 13 14 14 14 14 13 13 14 15 16 17 18 19 19 20 20 19 19 20 21 22 23 23 23 23 22
23 24 24 24 24 24 23 23 22 22 22 21 21 21 21 21 20 18 17 16 16 19 23 24 24 25 26 25 25 25 27 29 27 25 25 23 22 24 24 20 17 16 15 15 15 15 15 15 15 15 15 15 15 16 17 14 12 13 13 14 14 14 13 13 14 14 13 14 16 18 20 21 22 22 22 21 20 20 20 21 21 19 19 20 19
23 23 23 23 23 23 23 23 22 23 22 22 22 22 21 21 19 17 17 16 17 20 23 24 23 22 22 23 24 24 26 29 27 25 25 24 23 26 25 20 17 17 16 16 16 15 16 17 16 15 15 15 16 18 19 17 15 14 15 15 14 14 13 12 13 15 15 15 16 18 20 23 24 24 23 22 20 19 18 19 17 16 17 17 16
22 22 22 23 23 23 22 22 22 22 22 22 22 22 21 19 17 17 18 18 18 20 21 19 16 17 20 22 25 25 26 28 28 25 25 25 25 26 24 19 17 17 16 16 16 15 17 19 19 18 16 15 16 18 20 19 16 15 15 15 14 14 13 11 11 14 16 17 17 18 20 23 25 25 24 22 20 18 17 17 16 17 17 16 16
22 22 22 21 21 21 21 21 21 21 21 22 22 21 20 18 17 17 18 18 16 15 15 13 13 17 22 23 26 27 24 24 26 25 25 25 26 26 23 18 17 17 16 15 15 15 15 18 21 21 19 18 19 20 21 20 17 15 15 15 15 14 12 10 11 14 17 19 19 18 20 24 25 24 21 20 19 17 16 16 16 17 17 17 18
20 21 20 20 19 19 19 20 21 21 22 21 21 20 19 17 17 16 15 15 13 11 12 12 14 19 23 23 25 28 24 21 24 26 24 25 27 27 24 19 17 17 15 14 14 14 14 15 18 20 20 19 20 22 22 21 19 16 14 15 15 13 10 9 12 16 18 20 20 19 20 23 23 21 18 16 16 14 14 15 16 16 17 18 18
19 19 18 18 18 19 19 19 20 21 22 20 18 17 16 15 15 14 12 12 12 12 14 16 16 18 19 18 21 26 25 22 23 25 24 24 27 29 26 22 19 17 15 14 14 13 13 14 15 17 18 17 17 19 21 21 20 18 17 16 15 15 13 14 17 20 20 21 21 19 20 21 19 18 16 15 14 14 14 15 15 16 17 17 18
17 17 17 17 17 17 18 18 18 18 18 17 15 15 14 13 13 12 12 11 12 14 16 16 16 16 15 15 17 20 21 21 22 25 24 23 25 29 30 26 22 18 15 15 14 13 13 13 13 15 17 17 16 16 18 19 19 20 20 19 19 19 20 21 22 22 20 20 19 18 19 19 17 16 16 15 14 14 15 16 16 16 17 17 17
15 15 16 17 16 17 17 16 15 15 13 13 14 13 13 12 12 13 13 13 14 15 15 15 15 15 14 13 13 15 16 18 21 24 24 23 24 28 30 29 27 23 19 16 15 14 13 13 13 15 18 18 17 16 16 18 20 21 22 21 21 22 22 23 23 22 19 17 16 18 19 18 16 16 16 15 15 16 17 17 16 16 17 18 18
13 14 14 15 15 15 15 14 14 14 12 13 14 14 13 13 13 13 13 14 14 14 13 13 13 13 13 12 11 11 12 14 18 22 23 22 24 26 28 29 30 28 25 21 17 14 13 12 13 16 18 18 17 16 16 18 19 21 21 20 20 21 22 24 24 21 17 15 15 17 19 18 16 15 15 15 16 19 19 17 16 16 17 18 18
12 12 12 13 13 13 13 13 13 13 12 12 13 13 13 13 13 12 12 12 12 13 13 12 12 11 11 11 10 10 10 12 14 18 21 21 22 24 26 27 28 30 30 27 21 18 17 18 18 19 21 22 22 21 21 22 22 22 21 20 20 21 23 24 23 18 15 15 16 17 19 18 15 14 15 16 18 19 17 16 16 16 16 16 16
11 11 12 13 13 13 13 14 13 12 11 11 12 12 12 12 11 11 10 11 11 11 11 11 11 10 9 9 8 9 9 10 11 13 17 19 21 23 24 25 26 27 30 30 28 25 25 25 25 25 26 26 27 26 25 24 23 22 21 21 22 24 24 25 22 18 17 19 20 20 20 17 15 15 17 18 17 16 14 15 16 16 15 15 15
12 12 13 13 13 12 13 12 11 10 10 10 10 10 10 10 10 10 10 10 10 10 9 9 9 8 8 8 8 8 8 9 10 11 13 15 18 20 22 24 25 27 29 30 30 29 29 29 29 29 29 29 29 28 26 24 23 23 23 23 24 26 27 27 24 20 21 24 25 23 21 19 18 19 19 16 15 14 13 14 15 15 15 15 14
11 12 12 12 11 11 11 11 10 8 7 8 8 8 8 8 9 9 9 8 7 8 8 8 8 7 7 7 6 7 8 9 10 11 12 12 13 14 17 20 23 25 27 28 28 27 27 26 25 25 25 25 24 24 24 25 25 26 26 26 27 27 27 28 26 23 25 28 27 24 23 22 21 20 17 14 14 14 13 13 14 14 14 13 13
9 9 10 10 9 8 8 9 9 8 7 7 7 6 7 7 6 5 5 6 7 8 7 7 6 6 7 7 7 8 7 6 8 9 10 10 11 12 13 14 16 17 19 21 20 18 19 22 22 21 20 19 17 16 17 18 21 23 23 24 26 26 24 24 24 24 27 30 28 26 25 24 22 19 15 13 13 13 12 13 14 13 13 12 12
6 7 7 7 7 7 7 8 8 7 7 7 7 6 6 7 6 5 5 5 7 7 8 7 6 5 5 5 6 7 6 4 5 7 7 7 8 10 12 13 14 14 14 15 14 14 15 18 19 19 17 15 15 15 15 15 17 19 20 20 22 23 22 21 21 21 24 27 26 25 24 23 21 18 14 13 13 12 12 13 13 12 12 12 11
7 6 6 6 6 5 5 5 5 5 5 5 5 4 5 5 5 5 5 5 5 6 8 9 9 9 9 8 8 8 9 9 9 10 10 11 11 10 11 12 14 16 16 15 15 15 14 14 14 14 13 14 16 16 14 14 17 19 19 19 18 20 21 22 21 21 22 24 24 24 24 22 20 18 15 12 11 12 12 13 12 11 11 11 11
8 9 9 9 8 7 6 5 4 3 4 3 2 2 2 3 4 3 1 2 2 3 5 6 7 8 10 11 11 11 12 13 13 12 11 12 12 11 11 11 12 14 16 17 16 14 11 11 12 13 14 15 15 14 13 16 19 20 18 17 15 16 18 20 19 19 19 20 21 23 24 23 21 19 16 13 11 11 11 12 12 11 11 11 10
13 12 10 9 9 9 8 7 6 6 6 5 4 4 3 1 1 2 2 3 2 2 2 3 4 5 6 8 10 11 12 12 12 12 12 12 11 11 11 11 12 13 15 15 14 12 11 12 13 15 16 15 14 13 15 18 20 19 18 16 15 15 15 15 16 17 18 18 20 22 23 22 21 19 16 12 10 10 10 11 11 10 10 10 9
18 17 14 11 10 10 10 9 8 8 8 7 7 6 5 5 5 4 4 5 4 4 4 4 5 5 6 7 8 9 10 10 10 11 12 12 12 11 11 12 12 13 14 14 13 12 13 14 16 17 16 15 14 16 20 21 18 17 16 15 15 15 14 13 13 15 15 17 19 21 21 20 19 18 15 11 9 9 10 10 11 10 9 9 9
16 16 16 14 12 11 11 11 10 9 8 7 7 5 4 4 4 4 4 5 5 5 4 4 5 7 8 8 9 10 11 11 11 11 12 12 12 11 11 10 10 11 13 15 15 15 15 16 16 16 15 15 17 20 20 18 16 14 14 14 13 13 13 12 13 13 13 14 16 18 20 19 19 19 17 13 10 9 10 10 10 9 9 9 9
15 15 15 15 14 13 12 12 12 11 10 9 8 7 6 4 4 3 3 4 4 4 3 3 5 7 8 7 9 10 11 12 12 12 12 12 12 11 10 10 10 10 11 12 14 14 15 16 16 16 16 17 19 18 15 14 13 13 13 13 13 12 12 12 12 12 12 13 14 15 16 18 19 20 18 14 11 10 10 10 9 9 9 8 9
17 17 16 15 15 14 14 13 13 14 12 9 8 7 6 4 3 3 2 2 3 3 3 4 4 5 6 6 7 8 9 9 11 11 11 11 12 12 11 11 11 11 11 12 12 13 14 14 15 16 16 16 15 13 12 12 12 12 12 13 13 13 12 12 11 11 11 12 13 14 15 17 19 20 19 14 11 9 9 9 9 9 9 8 9
17 17 16 14 13 12 12 12 11 11 9 7 7 7 6 4 3 3 2 3 3 4 4 4 5 5 6 7 7 8 8 6 6 6 6 7 8 9 10 10 10 11 11 12 11 12 13 13 12 12 12 12 12 11 11 11 11 11 12 12 12 13 13 13 12 12 12 12 13 13 14 17 19 21 21 18 13 10 9 9 9 10 9 9 9
16 17 16 14 12 11 10 9 9 9 8 8 8 8 6 5 5 5 5 5 6 6 7 7 6 7 8 9 8 8 8 5 3 3 4 4 5 6 6 7 8 9 9 9 9 10 11 11 10 10 11 10 11 11 11 11 11 11 11 11 12 12 12 12 12 13 13 13 13 13 14 17 19 21 22 21 17 12 10 9 9 9 9 8 8
13 14 14 13 12 11 11 10 10 10 9 9 8 8 7 7 6 6 6 6 6 6 6 5 5 5 8 10 10 9 8 6 4 5 5 5 5 5 5 6 8 8 8 9 9 9 10 10 10 10 10 10 10 11 11 11 11 11 11 12 12 12 12 12 12 12 13 13 12 13 14 17 20 21 22 22 19 14 10 9 9 9 9 9 8
11 11 12 11 11 11 11 11 10 10 9 9 8 8 8 7 7 6 6 6 6 5 5 5 4 4 6 10 12 10 7 7 6 6 6 6 6 6 6 6 7 8 8 8 8 9 9 9 9 9 10 10 10 11 11 11 11 11 11 12 12 13 12 12 12 12 12 13 13 13 14 17 20 22 23 22 19 15 11 9 9 9 9 9 8
10 10 10 10 10 9 9 9 9 8 8 8 8 8 7 6 6 6 5 5 6 6 5 5 5 3 4 9 11 9 6 6 7 7 6 6 6 6 7 7 6 7 7 7 8 8 8 9 10 10 10 10 10 11 11 11 11 11 11 12 12 12 13 12 12 12 12 13 13 15 15 16 19 22 23 22 19 17 14 11 10 9 9 9 8
9 9 9 8 8 8 8 7 7 7 7 7 6 6 5 5 5 5 4 4 5 5 5 6 6 5 5 7 9 7 6 6 6 6 7 7 7 7 7 7 6 7 8 7 7 8 8 9 10 10 10 10 11 11 11 11 11 11 12 12 12 12 13 12 11 12 12 12 13 15 17 17 18 21 23 23 20 18 16 13 10 9 9 9 8
7 6 6 6 6 6 6 6 6 6 6 4 3 3 5 5 5 6 6 6 6 6 6 6 6 6 6 6 6 6 6 6 6 6 6 7 7 7 7 7 7 8 8 7 7 8 9 10 10 10 11 11 11 11 11 12 12 12 12 13 13 13 13 13 12 12 12 12 12 13 15 17 18 21 23 24 22 19 17 14 12 10 9 9 9
4 4 4 5 5 5 5 5 5 6 6 5 4 5 6 7 6 7 7 7 7 8 8 8 7 7 7 6 6 6 6 6 6 6 6 6 7 7 7 7 8 9 8 8 9 9 9 10 11 11 12 11 11 11 11 11 12 12 13 13 13 13 13 13 12 12 12 13 13 12 12 15 18 22 24 25 24 21 18 16 15 12 10 9 9
4 4 4 5 6 6 6 6 6 7 7 7 7 7 8 8 9 9 9 9 9 9 10 10 9 8 8 8 7 7 7 7 7 7 7 7 8 7 7 8 9 9 9 9 10 10 10 10 11 11 12 12 12 12 12 11 12 12 12 13 14 13 13 12 11 12 12 13 13 12 12 13 17 22 25 25 24 22 19 17 15 13 11 9 9
3 4 4 5 6 6 6 6 7 8 8 8 8 9 10 10 10 11 11 11 11 11 11 11 11 10 10 10 10 9 9 9 9 9 8 8 8 8 8 9 9 10 10 10 10 10 10 11 11 11 12 12 13 13 12 12 12 12 12 13 13 12 12 11 11 11 12 13 12 12 12 12 15 19 23 25 24 23 21 19 16 14 12 10 9
5 5 6 6 7 8 8 8 8 9 9 9 9 10 11 11 12 12 12 12 12 13 13 13 13 13 13 12 12 12 11 11 11 11 11 11 11 10 11 11 11 11 12 12 11 11 11 11 11 11 12 12 12 13 13 13 13 12 13 12 12 12 14 14 11 10 10 11 11 12 12 12 13 17 22 25 25 24 23 21 18 15 12 10 9
7 7 7 8 9 9 9 10 10 10 10 11 11 12 12 13 13 14 14 13 14 14 14 14 14 14 14 14 14 14 14 14 14 15 15 15 15 15 14 14 14 14 15 14 13 13 13 12 12 12 12 12 12 13 13 13 13 12 12 12 13 16 18 18 14 12 11 11 10 10 11 12 12 14 19 24 26 24 23 21 19 16 13 11 9
8 8 9 9 10 11 11 11 11 12 12 12 13 13 14 14 15 15 14 14 14 14 14 15 15 15 15 15 15 15 15 16 16 17 17 18 18 17 17 16 16 16 17 17 17 16 16 15 15 15 14 14 13 13 13 13 13 13 13 14 17 20 22 20 18 16 15 13 10 10 10 12 12 12 15 21 25 25 23 22 20 17 14 11 9
10 10 10 11 12 12 13 13 13 13 14 14 14 15 16 16 16 16 15 15 15 15 15 16 16 15 15 16 16 16 16 18 18 18 19 19 19 19 19 19 19 18 18 18 18 18 18 17 17 18 17 16 15 15 14 13 13 15 18 20 21 21 21 20 20 19 17 16 14 12 11 12 12 12 14 19 24 26 24 22 20 18 15 12 10
Wind_Direction
196 197 200 202 203 204 204 205 208 210 213 217 223 231 235 233 227 219 215 214 216 218 211 202 199 195 191 187 183 180 177 176 175 174 176 174 175 180 184 189 192 188 190 193 192 195 197 197 187 176 183 217 247 261 284 309 316 324 332 335 334 327 316 309 303 304 311 316 314 312 313 312 312 315 317 317 318 319 315 311 309 307 308 308 307
199 199 200 203 203 203 203 203 206 210 214 218 224 230 231 230 227 220 215 217 220 216 207 204 202 198 196 193 189 188 185 182 181 179 182 183 181 186 192 196 201 199 201 205 204 204 209 214 209 203 209 225 247 263 285 305 309 317 326 329 327 327 319 310 307 306 309 316 317 315 316 315 313 314 317 316 317 319 317 316 313 310 310 309 308
201 200 201 202 202 202 201 203 206 210 216 221 225 228 229 229 229 224 217 218 221 215 206 207 208 203 202 200 196 194 190 188 188 186 187 190 190 193 196 201 207 208 211 215 213 210 216 222 218 215 223 230 241 257 267 280 299 308 315 321 318 316 316 309 304 304 307 312 316 318 319 318 314 313 315 315 315 318 319 318 315 312 312 311 310
201 201 201 201 201 202 203 204 208 213 218 222 225 228 230 230 228 226 220 216 219 219 213 210 211 209 208 205 202 200 196 193 194 192 192 195 199 202 203 206 211 214 218 220 219 219 221 227 227 223 228 235 241 249 253 260 280 293 301 312 311 307 310 306 298 297 302 306 312 316 318 315 313 314 315 315 315 319 319 318 316 314 313 313 312
201 201 201 201 201 204 206 208 212 216 219 223 226 227 229 230 229 227 223 219 218 220 218 213 212 214 214 210 207 206 203 200 198 197 197 199 202 207 209 212 215 220 224 224 224 226 226 230 232 227 229 237 241 247 250 256 271 282 289 301 309 308 305 302 297 295 297 301 306 312 314 314 314 316 317 318 319 320 320 320 320 318 316 315 313
201 202 202 202 203 206 209 212 215 218 220 224 227 228 230 231 230 228 227 223 220 221 221 216 215 217 217 213 211 209 207 206 205 203 202 201 203 208 211 215 219 222 225 227 228 229 230 232 233 230 231 235 238 243 249 255 266 275 279 288 299 304 302 300 298 297 297 300 305 310 314 316 317 317 320 323 322 320 321 322 322 322 320 317 315
201 202 202 204 205 208 211 214 217 220 223 225 227 229 231 232 232 233 231 223 221 224 223 219 220 222 218 215 213 211 208 207 209 209 207 205 204 206 211 215 220 223 226 229 231 231 233 234 234 232 232 235 238 241 248 254 260 267 272 279 289 296 299 300 301 302 303 305 309 312 315 317 317 318 322 325 323 322 325 325 322 323 324 320 317
200 202 203 205 208 210 213 216 220 223 225 226 228 230 232 233 234 234 232 225 224 226 224 221 223 224 220 216 215 212 209 207 209 210 210 211 210 209 211 215 220 225 227 230 232 233 235 236 235 235 234 233 233 234 241 251 259 267 270 271 280 290 296 300 303 305 306 309 312 313 314 315 317 320 323 326 325 325 327 324 318 319 322 320 317
200 202 204 207 210 212 214 217 221 223 225 227 229 231 233 234 233 232 231 228 227 229 227 222 221 222 221 217 213 213 213 211 211 211 209 210 213 215 215 216 220 226 230 232 234 234 236 237 237 235 232 229 231 236 241 246 253 262 269 273 279 287 293 298 303 306 308 310 312 314 315 315 318 322 323 325 324 322 322 320 315 316 319 317 317
202 204 206 209 211 213 215 218 221 223 225 228 230 232 232 232 232 232 231 230 230 230 227 222 221 222 222 218 213 214 218 221 223 224 219 211 212 217 219 219 221 227 232 234 235 236 237 239 239 237 236 237 242 250 253 253 256 258 261 267 274 282 291 296 299 302 305 308 311 314 313 312 316 320 318 318 319 319 320 319 316 317 320 318 316
204 206 209 210 211 213 216 219 221 224 226 229 231 232 232 232 231 231 232 232 230 230 229 227 224 223 221 219 215 215 223 231 235 237 232 221 215 216 221 224 224 227 232 235 237 239 238 239 241 240 240 242 247 255 259 259 261 261 263 267 270 273 279 286 293 298 301 303 307 310 309 308 312 315 314 316 318 318 318 317 315 317 321 320 315
205 207 210 212 212 214 216 219 222 225 227 230 232 232 233 233 231 230 231 230 231 235 238 233 225 223 223 220 216 222 234 242 243 240 236 229 223 219 221 227 227 227 232 235 238 242 241 240 241 240 240 239 241 249 257 261 265 267 269 273 273 271 270 271 276 283 291 299 302 302 304 307 310 312 313 315 316 315 314 313 314 315 316 315 311
206 209 211 213 213 215 218 220 224 226 228 230 232 233 234 233 231 232 231 230 232 238 240 236 229 224 219 217 225 237 246 250 247 240 235 230 226 223 223 227 230 229 232 236 239 241 242 242 242 241 242 240 239 243 248 255 263 268 270 271 271 271 271 269 268 270 275 282 288 292 298 303 306 307 310 312 312 313 313 312 312 312 310 309 308
206 210 212 214 216 218 219 222 225 227 229 231 233 234 234 234 234 234 233 229 229 233 239 240 234 223 217 231 248 250 248 251 249 241 235 230 225 224 223 227 233 233 232 235 238 239 239 241 242 244 244 242 239 240 243 247 252 257 259 259 260 263 267 268 268 268 268 267 271 280 289 296 300 303 306 308 308 308 309 307 307 307 303 300 301
207 211 213 215 217 218 220 223 226 228 231 232 233 235 235 236 236 235 233 230 227 235 245 245 237 234 239 248 252 247 245 251 251 241 234 230 225 225 225 225 231 235 234 234 235 237 238 239 242 246 246 245 243 240 240 245 251 253 253 252 252 254 257 257 258 261 261 259 264 274 284 290 295 299 303 305 302 302 303 301 299 299 299 300 302
210 212 214 216 218 219 221 224 226 229 231 232 234 236 236 237 237 235 234 232 228 236 248 247 243 245 247 245 244 242 245 252 251 241 235 230 225 225 225 225 231 234 234 235 234 235 237 237 240 244 246 247 248 245 244 248 256 259 258 256 255 255 255 253 256 263 266 266 271 281 289 295 297 300 304 303 299 299 300 299 298 301 304 308 309
212 214 216 218 219 221 222 224 226 229 231 233 235 237 238 239 237 232 232 231 229 237 247 249 246 243 238 240 248 249 248 252 252 242 234 229 223 223 223 224 230 234 234 235 234 234 236 237 238 242 245 248 249 249 251 252 253 256 257 258 257 256 257 257 261 271 280 282 283 289 298 304 305 306 308 307 304 302 297 295 302 310 310 310 312
213 214 217 219 221 222 223 225 228 229 231 234 236 237 238 238 234 232 233 234 235 241 246 244 237 234 238 248 256 254 249 252 252 243 235 230 224 220 220 222 227 233 235 235 234 235 239 242 244 243 242 245 247 248 252 253 250 250 255 258 257 257 257 254 255 269 284 291 294 298 305 309 310 310 310 309 308 302 288 283 297 309 308 308 310
212 215 219 220 221 223 224 226 228 230 232 234 235 237 239 237 234 234 236 237 240 244 242 232 228 243 256 262 259 251 244 247 250 244 236 233 227 219 217 221 226 230 234 234 234 235 238 245 252 252 247 244 244 247 251 252 248 247 252 254 254 257 258 250 253 268 284 294 298 301 306 309 309 306 303 301 302 296 280 277 291 301 302 304 306
212 216 218 220 221 220 221 222 224 228 232 234 236 237 237 236 234 233 234 238 241 240 237 235 239 251 261 263 256 249 241 239 247 247 237 233 230 221 216 220 226 229 232 234 235 238 239 240 249 257 258 252 247 248 252 253 250 246 248 251 254 259 255 246 259 275 285 293 297 298 303 309 307 300 295 293 296 295 286 283 289 292 294 297 300
212 215 216 218 218 217 218 219 220 226 231 234 236 235 233 236 237 232 231 236 236 234 239 244 247 251 254 251 247 248 244 237 243 249 242 235 231 223 217 220 225 228 232 234 236 242 246 243 245 253 259 259 254 251 251 254 252 247 245 246 249 255 254 255 269 280 285 290 294 296 300 303 300 294 291 290 293 297 296 293 291 289 289 290 294
210 214 215 216 217 217 219 220 221 226 231 231 231 233 236 240 235 226 228 232 232 237 241 243 246 248 247 241 240 245 246 239 240 247 247 241 233 226 222 222 223 227 233 238 240 243 247 249 248 250 255 260 261 256 252 253 252 249 248 247 247 250 255 262 272 278 280 283 286 288 291 293 292 292 291 289 291 297 300 298 294 290 287 286 289
208 211 214 217 220 221 221 221 221 225 227 226 230 235 236 234 224 221 230 234 234 238 238 235 240 244 242 238 235 234 236 240 243 247 248 244 237 231 228 227 227 228 232 238 244 248 250 253 253 252 254 260 265 264 258 254 252 252 254 253 253 255 259 264 269 270 270 272 273 276 282 284 285 289 291 290 292 298 302 300 295 292 290 288 290
207 212 214 216 220 222 223 224 224 226 227 228 234 236 233 229 226 226 231 232 231 237 236 233 237 239 235 234 232 223 221 232 245 252 250 244 238 234 232 231 231 232 235 240 244 249 252 253 252 253 256 262 268 269 263 257 254 255 258 258 257 257 258 260 263 262 259 258 260 266 274 277 278 282 287 290 294 299 303 299 294 294 293 291 294
207 211 214 220 226 229 232 231 226 225 225 225 230 235 232 229 229 227 227 229 233 239 240 236 234 233 232 231 228 223 219 220 235 252 254 245 239 237 235 234 235 236 239 241 244 247 250 250 250 253 258 263 268 271 268 262 258 257 258 259 258 256 255 255 255 252 248 249 254 262 270 274 276 278 283 290 295 297 300 300 298 299 299 298 301
215 217 222 229 236 239 240 239 234 229 228 228 233 239 236 231 231 231 229 231 234 237 239 236 232 232 234 234 228 223 220 214 219 239 249 247 241 238 237 237 238 239 242 245 247 249 252 255 257 259 261 265 268 270 268 266 264 261 258 255 253 252 253 251 248 243 244 251 258 265 270 272 274 278 286 293 295 294 297 302 304 305 309 311 311
220 221 222 226 229 230 231 234 233 229 228 229 231 232 228 225 226 226 225 226 228 231 234 234 233 232 230 230 228 220 215 215 212 217 230 238 239 238 239 238 238 239 241 245 249 252 256 260 262 264 265 266 268 268 265 262 259 257 257 255 252 251 252 251 247 244 248 256 262 267 270 270 272 280 289 293 292 294 300 302 302 306 313 315 313
219 217 215 213 212 214 216 217 217 217 216 216 217 215 212 214 217 218 217 219 220 225 231 232 233 236 233 228 227 221 218 222 217 208 209 217 221 225 231 235 237 239 242 246 250 254 258 260 262 265 265 264 263 262 260 258 254 253 256 258 256 255 254 253 250 247 251 258 261 263 265 268 271 277 285 287 288 295 301 300 300 304 310 311 311
211 206 201 197 196 196 195 196 199 198 192 192 196 197 195 200 206 209 213 218 216 216 224 231 230 236 240 236 233 235 236 228 217 213 214 214 209 206 210 219 227 235 244 248 245 244 248 251 252 254 253 250 246 244 244 246 248 252 255 255 254 253 251 247 244 245 251 258 259 257 260 264 267 271 277 282 286 294 300 300 299 301 305 306 307
192 185 177 168 166 170 171 173 177 179 176 174 175 177 184 191 193 187 194 217 223 217 220 227 228 232 246 251 246 251 261 255 234 237 246 246 234 220 214 216 218 225 237 242 234 227 234 242 244 242 238 233 234 235 232 230 236 247 253 254 254 252 247 241 239 242 252 258 257 253 253 256 260 265 269 275 283 291 299 301 297 295 301 304 306
149 140 129 114 109 122 135 141 149 155 154 153 154 156 165 176 184 194 213 235 243 237 236 239 240 240 246 254 261 270 276 274 269 269 271 271 268 257 243 235 231 232 238 240 235 233 235 238 241 243 240 235 236 236 234 233 239 248 253 255 253 250 247 247 246 246 253 257 254 249 248 250 254 259 262 268 279 288 295 299 296 295 300 303 307
103 96 92 87 80 78 83 89 93 97 98 101 110 131 155 163 155 152 231 296 278 261 259 258 257 256 256 256 262 271 276 275 276 278 276 274 275 273 266 258 249 244 246 245 241 240 242 245 250 251 249 245 242 237 238 245 251 255 256 251 244 240 241 245 246 245 249 254 251 247 247 248 251 256 258 262 270 280 290 295 296 296 298 301 307
69 68 67 68 68 67 64 59 53 52 53 50 46 40 23 12 71 69 20 350 343 330 313 295 280 275 272 269 269 272 275 278 280 281 280 281 281 278 273 266 258 251 250 247 245 247 251 253 254 255 255 252 245 241 249 257 260 258 253 246 243 243 241 239 240 243 248 249 248 247 247 248 250 251 252 254 262 271 282 291 294 296 299 302 308
65 66 65 61 58 59 59 54 49 48 46 43 43 41 31 21 19 10 342 332 342 352 343 324 304 289 277 273 274 273 272 272 275 276 278 281 280 279 278 273 265 258 251 246 244 247 250 251 253 255 255 252 250 256 264 267 263 254 247 244 246 248 242 230 230 239 243 242 243 244 243 242 242 241 241 245 253 263 275 285 289 294 300 304 310
63 66 67 65 61 60 62 60 56 55 55 54 51 46 36 29 25 8 342 335 334 325 316 316 316 309 295 279 271 269 267 266 266 269 273 276 277 278 278 271 263 256 248 242 241 243 246 251 254 254 250 252 261 268 269 264 254 245 243 245 247 244 236 226 226 230 229 229 235 239 239 236 236 236 237 241 245 255 270 280 285 292 298 301 309
67 66 64 64 64 61 61 64 68 74 77 74 66 58 47 36 35 28 360 337 321 311 318 336 331 324 322 311 294 284 277 272 269 267 266 267 270 271 267 258 254 252 246 243 243 244 245 249 254 256 256 260 264 265 260 252 247 244 244 247 247 242 236 231 230 226 220 221 229 232 230 231 232 232 233 236 238 248 263 273 279 285 289 297 307
78 75 72 76 79 77 75 77 80 82 84 82 76 70 62 49 41 37 21 1 345 337 351 5 347 336 346 351 335 319 304 290 282 275 268 265 263 259 253 253 256 258 260 261 261 257 253 252 254 257 259 259 258 254 251 249 249 247 246 245 244 243 240 237 233 226 219 221 228 226 224 229 231 229 227 229 231 238 252 266 276 278 276 277 283
87 88 88 88 88 85 82 78 74 73 75 75 72 71 69 60 46 39 35 30 16 3 4 11 4 358 2 0 348 337 331 320 301 280 269 267 263 254 250 252 254 257 264 269 265 259 257 259 260 260 259 257 256 256 256 256 254 251 248 245 242 242 241 238 234 229 223 223 226 223 221 228 230 227 225 228 229 232 244 259 273 278 274 268 268
85 87 86 82 76 73 73 70 66 64 62 59 57 54 51 45 35 28 29 30 24 16 14 15 15 13 6 356 341 329 322 318 309 293 283 275 262 250 248 257 263 264 268 271 269 266 268 272 272 268 265 263 262 261 260 260 259 256 251 248 246 243 239 234 230 227 223 222 223 220 219 225 227 224 225 229 232 232 237 249 262 272 275 276 279
80 78 74 71 68 67 66 64 63 62 59 57 56 52 47 43 36 29 29 30 27 24 17 10 12 17 9 2 356 344 325 313 318 329 326 316 299 281 271 275 284 289 290 292 293 294 294 294 292 285 278 274 270 265 261 259 257 254 251 251 250 247 242 236 232 227 222 220 220 219 221 226 227 223 223 229 233 230 229 238 253 264 271 275 282
80 75 71 69 67 66 66 65 62 59 57 56 55 51 47 43 37 32 28 23 17 13 6 359 2 9 2 1 2 356 334 324 336 345 341 335 329 322 314 309 308 310 311 311 313 311 308 307 304 299 293 287 280 274 268 262 257 254 252 251 250 248 246 242 235 229 224 221 219 220 222 226 227 223 221 226 230 228 222 228 245 259 265 265 268
75 73 70 68 66 65 65 63 59 57 56 53 51 47 43 41 37 32 27 19 10 2 356 354 353 339 336 352 358 353 331 325 338 342 337 336 335 330 326 324 322 321 321 320 320 319 318 315 312 306 300 293 286 279 273 268 262 257 253 251 249 248 248 246 240 232 226 221 223 226 226 226 226 225 222 222 226 227 224 225 236 252 261 261 261
72 71 69 66 62 59 54 50 49 47 42 38 38 35 27 20 17 13 8 5 1 351 344 348 349 336 328 342 351 347 331 330 338 338 334 334 332 327 325 325 327 328 328 326 325 325 323 318 314 311 306 298 289 282 277 272 266 261 256 253 250 247 248 247 242 236 229 223 223 230 234 231 226 223 221 220 221 225 226 225 229 241 254 260 260
69 69 68 62 55 49 42 35 33 29 15 357 354 7 3 355 356 359 354 348 344 339 332 331 334 330 324 327 336 336 332 334 338 337 334 335 334 331 333 336 337 336 333 331 333 334 330 324 320 317 313 306 297 287 280 276 271 265 261 258 254 251 249 246 242 237 233 226 221 226 232 230 224 221 220 220 219 221 222 222 222 229 242 255 260
49 43 43 37 29 27 24 14 8 2 349 331 329 344 347 343 342 342 338 332 329 328 323 315 311 311 311 312 318 324 327 329 330 329 333 337 334 332 336 339 339 337 335 333 335 335 332 330 329 325 321 318 312 300 290 282 275 271 268 265 261 258 254 249 244 240 234 228 223 221 221 222 223 221 219 218 218 218 219 221 225 228 233 244 256
19 12 12 13 6 2 0 356 352 350 344 337 337 339 337 334 332 328 323 318 314 312 310 305 300 297 297 300 304 309 313 317 318 318 321 324 322 322 330 336 335 334 334 333 333 332 331 331 331 327 325 325 322 315 307 296 285 279 274 270 267 266 262 256 249 241 233 228 227 222 215 216 223 224 220 217 218 219 217 218 223 225 224 230 247
339 338 340 347 347 341 337 336 338 335 328 324 328 330 326 324 322 318 314 311 306 301 298 298 296 295 294 294 295 297 298 301 304 306 308 309 308 310 318 325 327 328 328 328 328 328 328 329 330 330 329 328 324 320 316 311 303 294 286 279 275 273 268 261 254 247 237 231 228 224 217 216 223 226 222 217 216 217 216 215 218 222 220 223 235
311 317 322 328 329 327 326 326 325 322 319 319 321 321 317 315 315 313 312 311 309 305 302 300 297 295 292 289 288 289 290 292 293 294 295 295 296 299 304 309 312 316 318 319 319 320 322 324 325 327 329 330 330 328 323 317 312 306 298 291 284 277 271 267 263 257 249 240 230 224 221 219 221 224 222 218 214 214 216 216 216 217 217 218 225
302 307 312 316 316 315 317 317 314 313 314 315 314 313 313 313 313 311 310 310 309 307 305 302 300 297 294 291 288 286 286 286 287 288 290 291 292 294 296 298 301 305 307 309 311 313 315 316 318 320 323 325 329 330 328 324 319 313 306 298 288 282 281 280 272 257 250 248 240 231 226 223 220 221 222 220 216 213 214 214 213 211 209 211 216
294 299 303 306 307 307 308 309 308 308 310 310 310 311 311 310 308 307 307 307 307 306 305 303 300 298 295 292 289 286 284 284 285 287 288 288 289 290 291 292 294 297 299 302 306 307 307 307 310 314 317 318 320 324 327 329 328 322 313 305 297 292 292 289 278 260 248 244 242 237 231 227 222 217 218 219 216 213 211 212 212 209 204 202 206
288 294 296 298 301 302 303 305 305 306 307 307 306 306 306 305 304 304 303 302 302 302 301 301 299 297 295 294 292 289 286 285 285 285 284 283 284 286 287 288 290 291 293 296 300 302 303 304 305 308 311 313 315 317 320 324 329 328 322 316 311 305 300 294 283 270 256 244 238 235 233 230 223 215 214 216 216 213 211 211 210 209 205 200 199